Regional Weather Roundup
Issued by NWS

Home | Current Version | Previous Version | Graphics & Text | Print | Product List | Glossary On
Versions: 1 2 3 4 5 6 7 8 9 10 11 12 13 14 15 16 17 18 19 20 21 22 23 24 25 26 27 28 29 30 31 32 33 34 35 36 37 38 39 40 41 42 43 44 45 46 47 48 49 50
754
ASUS43 KMKX 221800
RWRWI

WISCONSIN REGIONAL WEATHER ROUNDUP
NATIONAL WEATHER SERVICE MILWAUKEE/SULLIVAN WI
100 PM CDT MON MAY 22 2017

NOTE: "FAIR" INDICATES FEW OR NO CLOUDS BELOW 12,000 FEET WITH NO
SIGNIFICANT WEATHER AND/OR OBSTRUCTIONS TO VISIBILITY.

WIZ001-002-006>008-014>016-023>028-221900-
NORTHWEST WISCONSIN

CITY           SKY/WX    TMP DP  RH WIND       PRES   REMARKS
SUPERIOR ARPT  NOT AVBL
ASHLAND        CLOUDY    53  44  71 SW15      29.78S
6HR MIN TEMP:  47; 6HR MAX TEMP:  54; 6HR PCP:  0.01;

HAYWARD        CLOUDY    52  41  66 SW13G18   29.81S
6HR MIN TEMP:  45; 6HR MAX TEMP:  52;

SIREN          CLOUDY    54  42  65 W10       29.83S
CUMBERLAND     CLOUDY    52  41  66 W10       29.83R
RICE LAKE      PTSUNNY   56  42  60 W10G17    29.84S
CHETEK         CLOUDY    57  42  57 W9G20     29.82S
LADYSMITH      CLOUDY    56  43  62 W17       29.83S
EAU CLAIRE     NOT AVBL
MENOMONIE      MOSUNNY   62  43  50 W13       29.83F
NEW RICHMOND   PTSUNNY   60  40  49 W12G22    29.84S
OSCEOLA        PTSUNNY   59  45  58 W12G23    29.86S
$$

WIZ003>005-009-010-017-018-221900-
NORTH CENTRAL WISCONSIN

CITY           SKY/WX    TMP DP  RH WIND       PRES   REMARKS
MANITOWISH WTR CLOUDY    48  43  81 SW12      29.78S
ARBOR VITAE    PTSUNNY   52  43  71 SW10      29.79S
WOODRUFF       PTSUNNY   52  43  71 SW10      29.79S
RHINELANDER    CLOUDY    56  41  57 W12G20    29.80F
6HR MIN TEMP:  45; 6HR MAX TEMP:  56; 6HR PCP: TRACE;

EAGLE RIVER    CLOUDY    52  39  62 SW15G21   29.79S
LAND O LAKES   CLOUDY    51  40  65 W9        29.80S
PHILLIPS       CLOUDY    52  43  71 W7        29.79S
6HR MIN TEMP:  42; 6HR MAX TEMP:  52;

TOMAHAWK       CLOUDY    54  41  61 W8        29.81S
MEDFORD        CLOUDY    56  42  61 SW15G22   29.81F
MERRILL        PTSUNNY   56  42  59 SW14      29.82F
$$

WIZ029-030-035-036-043>047-221900-
CENTRAL WISCONSIN

CITY           SKY/WX    TMP DP  RH WIND       PRES   REMARKS
WAUSAU         PTSUNNY   59  42  53 W13G22    29.80F
6HR MIN TEMP:  45; 6HR MAX TEMP:  60;

MOSINEE        PTSUNNY   61  45  55 SW17G23   29.84F
MARSHFIELD     MOSUNNY   62  43  49 W12G25    29.82F
6HR MIN TEMP:  44; 6HR MAX TEMP:  62;

STEVENS POINT  MOSUNNY   62  42  48 W15       29.84F
WAUPACA        MOSUNNY   66  43  42 SW13G21   29.85F
WAUTOMA        MOSUNNY   66  45  46 MISG      29.85F
6HR MIN TEMP:  47; 6HR MAX TEMP:  66;

WISC RAPIDS    MOSUNNY   65  44  46 SW16G22   29.85F
6HR MIN TEMP:  46; 6HR MAX TEMP:  67;

CAMP DOUGLAS   NOT AVBL
$$

WIZ011>013-019>022-031-037>040-048>050-221900-
NORTHEAST WISCONSIN

CITY           SKY/WX    TMP DP  RH WIND       PRES   REMARKS
ANTIGO         PTSUNNY   56  44  63 W17G25    29.82F
SHAWANO        PTSUNNY   63  42  46 SW12G18   29.84F
OCONTO         PTSUNNY   60  41  49 W16G23    29.83F
STURGEON BAY   MOSUNNY   60  43  53 W14G23    29.85F
6HR MIN TEMP:  47; 6HR MAX TEMP:  60; 6HR PCP: TRACE;

GREEN BAY      PTSUNNY   62  47  57 SW13      29.85F
6HR MIN TEMP:  48; 6HR MAX TEMP:  62;

MANITOWOC      NOT AVBL
APPLETON       PTSUNNY   63  43  48 SW14G21   29.85F
CLINTONVILLE   PTSUNNY   64  41  42 SW16G22   29.84F
OSHKOSH        SUNNY     64  46  52 SW15G21   29.86F
6HR MIN TEMP:  48; 6HR MAX TEMP:  64;

$$

WIZ032>034-041-042-053>061-221900-
SOUTHWEST WISCONSIN

CITY           SKY/WX    TMP DP  RH WIND       PRES   REMARKS
LA CROSSE      SUNNY     67  50  54 S14       29.85F
6HR MIN TEMP:  50; 6HR MAX TEMP:  68;

SPARTA         SUNNY     65  46  49 W9        29.86F
VIROQUA        SUNNY     62  49  62 N10       29.88F
6HR MIN TEMP:  45; 6HR MAX TEMP:  62;

BOSCOBEL       MOSUNNY   60  52  74 S10       29.89F
6HR MIN TEMP:  47; 6HR MAX TEMP:  60; 6HR PCP:  0.02;

PRAIRIE DU CHI MOSUNNY   56  50  80 SE5       29.89F
PLATTEVILLE    CLOUDY    59  52  76 S8        29.93F
$$

WIZ056-057-062-063-064-067-068-221900-
SOUTH CENTRAL WISCONSIN

CITY           SKY/WX    TMP DP  RH WIND       PRES   REMARKS
REEDSBURG      PTSUNNY   58  48  67 SW12      29.89F
BARABOO/DELLS  PTSUNNY   58  46  65 SW16      29.88F
LONE ROCK      NOT AVBL
MINERAL POINT  LGT RAIN  55  54  94 S7        29.92F
MADISON        CLOUDY    55  49  80 VRB5      29.92F
6HR MIN TEMP:  47; 6HR MAX TEMP:  61; 6HR PCP: TRACE;

MIDDLETON      CLOUDY    55  49  80 SW13G20   29.93F
WATERTOWN      CLOUDY    62  50  64 SW10G22   29.92S
MONROE         LGT RAIN  55  50  82 SW13G20   29.95F
JANESVILLE     PTSUNNY   64  48  55 W13G18    29.95S
$$

WIZ051-052-058>065-066-070>072-221900-
SOUTHEAST WISCONSIN

CITY           SKY/WX    TMP DP  RH WIND       PRES   REMARKS
MILWAUKEE      PTSUNNY   65  45  48 SW12G25   29.94F
6HR MIN TEMP:  51; 6HR MAX TEMP:  67;

WAUKESHA       PTSUNNY   61  45  55 SW14G24   29.95S
MILWAUKEE/TIMM MOSUNNY   63  43  48 SW16G24   29.93F
RACINE         CLOUDY    64  45  49 SW13G22   29.95F
6HR MIN TEMP:  49; 6HR MAX TEMP:  66;

KENOSHA        MOSUNNY   67  48  50 W21G32    29.95S
6HR MIN TEMP:  49; 6HR MAX TEMP:  68;

FOND DU LAC    MOSUNNY   65  46  50 SW12G23   29.87F
6HR MIN TEMP:  48; 6HR MAX TEMP:  65;

SHEBOYGAN      MOSUNNY   65  47  52 SW17      29.89F
6HR MIN TEMP:  49; 6HR MAX TEMP:  65;

WEST BEND      MOSUNNY   63  45  51 SW18      29.91S
JUNEAU         MOSUNNY   63  47  57 SW20G30   29.92S
$$

LSZ147-162-221900-
LAKE SUPERIOR

STATION/POSITION TIME  TEMP    WIND        PRES    WAVE
                       AIR SEA DIR/SP/G            HT/PER
                 (UTC) (F)     (DEG/KT/KT) (MB)    (FT/S)
W MID LAKE BUOY  1650   40 37  230/ 10/ 12 1007.6R   2/ 5
DEVILS ISLAND    1700   45     240/ 18/ 21 1007.7R
SAXON HARBOR     1740   54     240/  7/ 15 1007.8S
$$

LMZ867-665-643>646-221900-
LAKE MICHIGAN

STATION/POSITION TIME  TEMP    WIND        PRES    WAVE
                       AIR SEA DIR/SP/G            HT/PER
                 (UTC) (F)     (DEG/KT/KT) (MB)    (FT/S)
CHAMBERS ISLAND  1740   58     210/  7/ 15 1009.8S
N MID LAKE BUOY  1650   42 39  200/ 10/ 12 1011.5R   2/ 5
NORTHPORT PIER   1740   58     280/  8/ 17 1009.8F
KEWAUNEE LAKESHO 1730   60     240/ 10/ 20 1011.0S
SHEBOYGAN LAKESH 1700   60     230/ 15/ 18 1012.3F
PORT WASHINGTON  1740   65     250/  7/ 21 1013.5F
ATWATER BUOY     1609   58     230/ 12/ 17 1013.9F
MILWAUKEE LAKESH 1740   62     220/ 19/ 22   N/A
S MID LAKE BUOY  1650   48 45  190/ 12/ 14 1015.7F   2/ 4
KENOSHA   LAKESH 1700   64     230/ 15/ 21 1014.2
$$

TC  - TEMPERATURE IN CELSIUS
VSB - VISIBILITY IN STATUTE MILES
WCI - WIND CHILL INDEX
HX  - HEAT INDEX





USA.gov is the U.S. government's official web portal to all federal, state and local government web resources and services.